Wind_Speed
8 8 7 10 18 21 22 24 25 28 31 31 31 29 24 19 16 13 13 14 13 13 14 16 20 25 28 30 31 32 31 30 31 33 35 36 37 37 38 38 37 36 36 37 35 28 24 24 22 19 18 16 17 19 18 16 15 14 13 12 11 10 10 10 10 10 10 10 11 12 13 14 15 16 17 18 19 19 20 21 22 23 24 25 26 26 25
8 8 8 9 18 22 22 24 25 26 29 30 29 28 25 20 17 16 14 12 11 11 14 18 22 25 28 29 30 30 29 29 29 30 32 34 34 35 35 36 36 36 36 35 32 27 24 23 21 18 16 16 18 19 17 16 14 13 13 12 11 10 10 10 10 9 9 9 11 12 14 15 16 16 17 17 18 19 20 21 22 23 24 25 25 25 24
6 6 6 7 17 22 22 23 23 23 26 28 28 27 26 24 20 17 14 13 13 12 12 18 25 28 29 28 28 27 27 27 27 28 31 33 34 35 35 35 35 34 33 32 30 27 24 23 21 18 17 18 19 19 17 15 14 13 13 12 11 11 10 10 9 8 8 9 11 13 14 15 16 16 17 17 18 19 20 20 21 22 23 24 24 24 23
7 5 6 9 15 19 22 22 21 22 24 26 26 25 24 24 22 19 17 14 12 12 12 14 19 26 29 28 27 27 26 26 26 27 28 30 31 31 29 30 31 31 31 30 28 25 24 24 22 21 21 21 20 18 16 15 14 13 13 12 11 11 10 9 8 8 9 10 11 13 14 15 16 16 16 17 17 18 19 20 21 22 22 22 22 22 22
12 10 11 13 13 12 14 18 19 21 22 21 22 21 20 21 22 20 19 16 12 11 13 14 15 19 23 25 25 25 26 26 27 27 27 27 26 26 25 26 28 30 30 28 25 24 23 21 20 22 22 21 20 18 16 15 14 14 13 13 12 11 10 9 8 8 9 10 11 13 14 14 15 15 16 16 17 17 18 19 20 21 21 21 20 20 21
15 14 9 7 7 5 8 14 16 17 18 18 18 19 19 19 19 17 15 15 13 13 12 12 14 16 18 20 22 24 25 26 27 28 26 24 23 24 25 28 29 30 29 25 24 24 21 16 17 20 21 20 19 17 16 15 15 14 14 13 12 11 10 9 9 8 9 10 11 12 13 14 14 14 15 15 16 17 18 19 19 19 19 19 19 19 19
16 17 11 2 1 5 9 13 13 12 14 15 15 15 16 17 17 16 15 13 13 13 11 10 12 16 18 20 23 25 25 23 24 25 25 23 24 26 28 29 28 26 24 23 23 23 19 15 18 19 19 19 18 16 16 16 15 14 14 13 12 11 11 10 9 9 9 10 11 12 12 13 13 13 14 14 16 17 18 18 17 17 17 17 17 17 17
14 14 11 4 3 4 8 10 10 10 10 11 13 13 14 16 17 18 18 16 15 15 14 12 13 16 19 21 23 23 23 22 21 22 22 24 25 27 27 26 24 22 21 22 23 21 18 18 19 19 20 19 17 16 16 16 15 14 14 13 12 11 11 10 9 9 9 10 10 11 11 12 12 13 13 14 15 16 16 16 15 15 15 16 16 16 16
11 10 11 10 7 5 10 12 10 10 9 8 10 11 11 14 16 18 20 20 18 17 16 15 16 17 20 23 23 23 23 24 23 21 21 21 22 22 21 20 20 20 20 22 22 19 18 19 18 19 21 20 18 17 16 16 15 15 14 13 12 11 10 9 8 9 9 9 9 10 10 11 12 13 13 13 14 14 14 14 14 15 15 15 15 15 16
14 11 9 8 6 6 11 13 11 11 11 9 9 10 10 11 13 16 19 20 20 19 18 18 18 20 23 24 24 23 24 24 24 24 22 20 18 17 17 17 18 19 19 20 19 18 19 19 18 19 20 19 18 17 16 15 15 15 13 12 11 10 9 8 8 8 8 8 8 9 9 10 11 12 12 12 12 12 13 13 13 14 14 14 15 15 15
21 18 11 7 8 10 12 12 12 13 13 11 10 9 11 13 12 13 16 18 20 20 19 19 20 22 24 23 21 21 22 23 25 25 24 22 19 17 16 16 16 16 18 19 19 19 19 18 18 18 19 19 18 17 15 15 15 13 12 11 10 9 8 7 7 6 6 6 7 8 9 9 10 10 10 11 11 11 12 12 12 13 13 13 13 13 13
26 24 17 12 14 14 13 13 14 14 14 14 11 7 8 13 13 13 15 16 18 19 19 19 20 20 20 18 18 20 22 24 26 25 24 22 21 20 18 16 14 15 17 19 18 16 17 18 18 18 19 19 18 16 15 15 13 12 11 10 9 8 7 6 5 5 5 6 6 7 7 7 8 8 9 10 10 10 11 11 11 11 11 12 12 13 13
27 26 19 13 13 13 12 12 14 14 14 14 13 10 8 10 12 14 17 18 17 19 20 19 19 18 16 16 19 21 23 26 27 26 25 23 20 18 17 16 15 17 18 17 16 17 18 19 18 18 19 19 17 16 14 13 12 11 10 9 8 7 6 5 4 4 4 5 5 5 5 6 7 8 8 9 9 9 9 8 8 10 11 12 13 14 15
24 24 17 9 9 13 13 11 13 15 15 14 14 14 13 12 12 13 17 20 20 19 20 20 19 19 18 19 21 22 23 26 27 26 26 25 22 19 16 16 16 17 16 16 18 19 19 18 18 19 20 19 17 15 13 12 11 11 9 8 7 5 5 4 4 3 3 3 3 3 4 5 6 7 7 7 7 6 7 7 9 11 12 13 14 15 16
18 18 13 6 7 14 16 15 16 17 17 16 16 15 15 15 14 14 17 21 22 21 21 21 21 20 22 24 23 21 21 24 25 24 23 24 23 20 18 18 17 15 14 17 20 19 18 18 20 20 20 18 16 14 13 11 10 9 7 6 6 5 4 4 3 2 2 1 2 3 4 5 6 6 5 4 5 6 8 10 11 12 12 13 14 15 14
17 16 15 12 12 14 15 16 17 16 16 17 16 15 15 14 13 13 16 20 24 24 23 23 23 24 24 25 24 21 21 23 25 24 23 23 22 20 18 18 17 15 16 19 21 20 18 18 20 19 18 17 15 13 12 9 8 7 6 5 5 4 4 3 3 2 0 1 2 3 4 5 3 2 4 5 7 9 10 11 12 12 12 13 13 13 13
19 18 18 17 15 13 12 13 14 14 15 16 15 15 15 13 11 12 15 18 22 25 25 25 25 24 23 23 23 22 22 23 24 24 23 22 21 20 19 18 17 17 18 21 22 21 19 19 18 18 17 15 14 12 10 8 7 6 6 5 5 4 4 3 2 1 0 1 3 3 3 1 2 5 6 7 9 10 10 11 11 11 11 11 11 11 11
20 19 18 16 15 14 13 13 13 13 14 15 15 15 14 13 12 12 14 16 19 22 25 25 23 21 23 25 24 22 21 22 23 23 23 22 22 21 20 19 18 18 20 22 21 20 19 17 16 14 13 12 11 9 8 7 7 7 6 6 6 5 4 3 2 1 1 2 2 1 1 4 6 7 8 9 10 10 10 10 10 10 9 9 9 10 10
18 18 19 18 17 16 15 15 15 14 13 14 15 15 14 13 12 12 14 15 16 20 23 22 20 21 25 27 24 23 22 22 23 23 23 22 22 21 20 20 19 20 21 21 20 19 16 14 13 12 10 9 8 8 8 8 8 8 7 7 6 5 5 3 2 1 2 2 1 3 5 7 9 9 9 10 10 10 9 8 8 7 8 9 9 9 10
19 18 18 18 18 17 17 16 16 15 14 14 15 15 15 14 13 14 15 15 16 18 19 19 19 22 26 26 24 23 22 21 21 22 22 21 21 20 20 20 20 21 22 21 19 17 15 13 12 11 10 9 8 9 9 9 9 8 8 8 7 6 5 3 2 2 2 3 5 7 8 9 10 10 9 9 9 8 7 6 6 7 8 8 9 9 10
20 20 19 18 17 18 18 18 17 17 16 15 15 15 16 16 16 16 17 18 18 18 17 17 20 23 26 25 22 21 20 20 20 21 20 20 20 20 20 20 21 22 22 20 18 17 15 13 12 11 10 9 10 10 11 11 10 9 8 7 7 6 4 2 2 3 4 6 8 9 10 10 10 9 8 8 7 6 5 5 6 7 7 8 9 9 10
16 17 17 17 17 17 18 18 18 18 16 16 16 16 16 17 17 18 19 20 22 22 19 18 20 23 25 25 21 19 18 19 19 20 20 20 21 21 21 22 22 22 21 19 18 16 14 13 12 11 10 10 10 11 11 11 10 10 9 8 7 5 4 3 4 6 8 9 10 11 11 11 10 9 7 6 5 5 5 5 6 7 7 8 8 9 9
11 11 12 14 15 16 15 15 16 17 16 16 15 15 16 17 18 20 21 22 24 25 24 22 22 24 26 25 22 19 17 18 18 19 20 20 22 22 23 23 23 23 22 20 18 16 14 12 12 11 10 10 10 11 11 11 11 10 10 9 7 5 5 6 8 9 11 11 12 11 10 9 9 7 5 4 4 4 5 5 5 6 6 6 7 7 8
10 8 9 11 13 14 14 14 14 15 16 15 14 14 15 15 16 20 24 23 23 25 25 24 24 25 26 25 21 18 16 17 18 20 20 20 20 21 22 22 22 22 21 19 17 15 13 12 11 10 11 12 12 11 11 11 11 10 9 8 6 6 7 9 11 12 12 12 12 11 9 8 6 5 4 3 3 4 4 4 4 4 5 5 6 7 8
8 6 6 10 12 13 13 13 13 14 15 16 15 14 13 13 15 21 26 25 22 22 24 23 23 25 26 24 21 18 16 16 17 20 22 22 21 20 21 21 21 20 19 17 15 14 13 12 11 11 12 13 13 12 12 11 11 10 8 6 6 9 11 12 12 13 13 12 11 9 8 6 5 4 3 2 2 3 3 3 4 4 5 6 7 8 8
6 4 4 8 12 13 14 14 14 14 15 17 17 16 14 13 14 17 23 23 21 21 23 23 22 24 25 24 22 21 19 17 17 19 21 22 23 22 21 20 19 18 17 15 14 14 13 12 11 12 13 13 13 12 12 12 10 8 7 6 9 12 14 14 13 13 12 11 10 8 6 4 3 2 1 1 2 3 4 4 5 6 6 7 8 9 9
6 4 3 6 10 12 13 13 13 13 14 16 18 17 16 15 13 12 15 20 21 20 21 21 20 21 21 21 22 24 22 19 19 20 21 22 23 23 20 19 20 19 18 16 15 14 12 11 11 12 13 13 13 13 12 11 9 8 7 9 11 14 15 15 14 13 11 10 8 6 4 3 2 1 0 1 2 3 4 5 6 7 7 7 8 9 9
5 5 5 6 7 10 12 13 12 11 11 13 15 16 17 17 15 12 13 18 22 20 18 18 18 18 18 17 17 19 19 18 19 21 23 24 23 22 21 21 21 21 20 18 15 14 12 12 12 13 13 13 13 13 13 11 9 9 10 12 14 15 15 15 14 12 10 8 6 5 3 2 1 1 2 3 4 4 4 5 6 6 7 8 8 9 9
5 5 5 5 6 8 10 11 11 10 8 9 12 15 16 17 15 14 14 18 21 20 17 18 18 19 18 16 15 15 15 14 14 16 20 23 23 22 22 23 23 23 21 18 16 14 13 13 13 13 13 14 14 13 12 10 10 11 13 14 15 16 15 14 12 11 9 7 6 4 2 1 1 2 3 3 4 4 4 5 5 6 7 8 8 8 9
6 5 3 2 3 5 7 9 9 8 7 7 9 13 16 17 16 15 17 20 22 20 18 18 19 19 19 18 18 17 15 12 10 11 15 20 23 23 23 23 24 23 20 17 15 14 13 13 13 14 14 14 14 13 11 10 11 14 15 16 16 16 15 13 12 10 9 7 6 4 2 1 0 1 2 3 4 4 4 4 5 6 6 7 8 8 8
7 6 4 3 3 4 5 7 8 7 7 7 9 11 14 15 16 16 18 21 23 22 20 19 18 18 19 19 19 17 15 14 13 14 14 17 21 23 22 22 22 19 16 15 14 13 13 13 14 15 15 14 14 12 11 11 13 16 17 17 17 16 15 13 11 10 9 7 5 4 3 2 1 1 2 3 4 4 4 5 5 6 7 7 8 8 9
5 6 6 5 3 3 4 5 6 7 7 8 9 10 11 13 14 15 18 22 24 23 22 21 20 19 20 19 19 19 19 17 17 17 16 17 19 20 21 21 21 18 14 14 15 14 13 14 15 16 16 15 13 12 11 12 15 17 18 18 17 15 14 13 11 10 8 7 5 4 3 2 1 0 1 2 3 4 4 5 6 6 7 7 8 8 9
4 5 7 6 5 4 4 4 6 7 7 7 9 10 10 12 13 14 16 19 22 23 23 24 22 21 21 20 19 20 20 19 18 19 18 17 18 20 22 23 21 17 14 13 15 15 15 15 16 17 16 15 13 12 12 14 16 18 18 18 17 15 14 12 11 9 8 7 6 5 4 3 1 0 0 1 2 3 4 5 6 6 7 7 8 8 9
8 6 6 7 7 7 5 5 6 7 8 8 9 10 11 13 15 17 18 20 21 23 24 24 23 22 22 23 22 22 21 18 17 19 19 18 19 22 23 22 20 18 16 15 15 16 16 16 17 17 15 15 14 14 15 16 17 18 19 18 17 15 14 12 10 9 8 7 7 5 4 3 2 1 1 1 2 2 3 4 6 6 7 7 8 8 9
11 9 8 9 10 9 7 6 7 8 9 9 10 12 14 15 16 19 21 22 22 21 22 23 24 24 23 23 24 23 21 18 18 19 18 17 19 21 21 19 18 18 17 16 16 17 18 18 18 17 16 16 16 16 17 18 19 20 20 18 17 15 14 12 10 9 8 8 7 6 5 4 3 3 2 2 2 3 3 4 5 6 7 8 8 9 10
11 10 10 11 11 10 9 8 8 9 10 10 10 11 14 16 17 19 22 24 23 22 20 21 22 22 21 21 22 20 18 17 20 21 19 17 18 19 18 16 16 16 16 15 15 16 18 18 18 17 17 18 18 18 19 20 21 21 20 18 16 15 13 12 10 9 8 8 7 6 6 5 5 4 4 3 3 4 4 4 5 6 7 8 8 9 10
10 10 11 12 12 11 10 9 9 10 11 12 11 11 12 15 17 19 21 23 24 24 22 20 18 17 17 18 19 18 16 16 18 20 20 20 19 17 15 15 15 15 15 15 15 17 18 18 18 18 18 19 19 20 20 21 21 20 19 17 16 14 13 12 11 10 9 9 8 8 7 7 7 6 5 5 5 4 4 4 5 6 7 8 8 9 9
11 11 11 12 12 12 10 9 10 11 12 13 13 13 13 15 17 19 20 22 23 24 24 22 19 18 18 17 17 20 21 19 17 17 18 18 16 14 13 13 13 13 13 13 16 19 20 19 18 19 19 20 20 21 21 21 21 20 18 17 15 14 13 12 12 11 11 10 10 10 9 9 8 8 7 7 6 5 5 6 6 7 8 9 9 9 9
11 11 11 12 13 13 12 11 13 14 13 13 13 13 14 15 16 17 19 21 22 23 25 23 21 21 22 20 18 20 23 22 19 18 18 16 13 13 13 13 14 14 14 15 18 20 21 20 19 20 21 21 21 22 21 21 20 19 18 17 16 15 14 13 12 12 11 11 11 11 11 10 10 9 9 8 8 7 7 7 8 8 9 9 10 10 10
11 11 11 12 12 12 12 13 16 16 15 14 14 14 14 14 14 14 15 18 20 22 24 24 21 20 22 21 17 17 20 19 16 15 15 15 15 16 16 16 17 17 17 17 19 21 21 20 21 21 21 21 22 22 21 21 20 19 18 17 17 16 15 14 13 12 12 12 11 11 11 11 11 11 10 10 10 9 9 10 10 10 10 10 11 11 11
12 12 12 12 12 12 13 15 17 16 15 14 15 15 15 15 15 15 15 16 18 19 22 24 22 21 22 23 20 17 16 17 16 16 16 16 17 18 18 17 17 17 17 17 20 22 22 21 22 22 21 22 23 23 22 21 21 19 18 17 16 15 14 13 13 12 12 12 12 12 12 12 12 12 12 12 12 12 12 12 12 12 11 11 12 13 13
12 12 12 12 12 12 14 15 16 16 15 13 12 13 14 15 16 16 16 16 17 18 20 23 24 23 23 24 24 21 21 23 23 22 20 18 16 14 14 15 16 18 19 20 22 23 23 22 22 22 23 23 24 23 23 22 20 19 18 17 16 14 13 13 12 13 13 13 13 13 13 13 14 14 14 14 14 14 14 14 14 14 13 13 14 14 15
11 12 12 12 11 12 14 16 16 16 15 14 13 12 11 9 9 11 13 15 16 17 18 22 25 25 23 23 23 24 25 26 24 21 20 20 18 15 15 17 19 20 21 22 23 24 24 23 23 23 24 24 24 23 22 21 20 19 18 17 15 15 14 14 14 14 14 14 14 15 15 15 15 15 15 16 16 16 16 16 16 16 16 16 16 16 16
11 11 11 12 11 12 14 16 16 15 15 16 16 15 12 9 7 8 12 15 15 16 18 21 24 25 24 22 21 20 21 20 19 17 19 21 20 17 16 18 20 22 22 22 23 24 24 23 23 24 24 24 24 23 22 21 19 18 18 17 16 16 16 15 15 15 15 15 16 16 16 16 16 17 17 18 18 19 19 19 19 19 19 19 18 18 18
11 11 11 12 13 13 14 15 17 17 17 17 18 17 15 12 10 10 13 16 16 15 17 20 21 22 22 22 20 19 18 18 18 19 21 20 17 16 17 19 21 23 23 23 23 23 23 22 23 23 23 23 23 22 21 20 20 19 18 17 17 16 16 16 15 15 16 17 17 18 18 18 18 18 19 20 20 20 20 20 20 21 21 21 20 20 20
10 10 11 11 14 15 14 15 17 17 16 17 19 18 15 13 12 12 15 17 17 17 19 20 20 19 19 20 21 22 22 21 21 21 21 19 17 17 18 20 21 22 23 23 22 22 21 21 21 22 22 22 22 21 21 20 20 20 19 18 17 16 16 15 15 16 17 18 18 18 19 19 19 19 20 20 21 21 21 21 22 22 22 22 22 22 21
9 10 11 11 13 14 14 15 18 20 18 18 18 17 15 14 14 14 17 18 17 17 17 18 17 18 18 19 19 21 21 22 22 22 21 21 20 21 21 21 21 21 21 21 21 21 21 22 22 22 22 22 21 20 20 20 20 20 19 18 17 17 16 16 16 17 18 19 19 19 19 20 20 20 21 21 21 21 21 22 22 23 23 23 23 23 23
9 9 10 10 11 12 13 15 19 22 21 18 17 17 18 16 15 15 17 19 19 18 15 14 15 18 19 19 19 19 18 19 20 21 22 23 24 24 23 22 21 21 21 21 21 22 22 22 22 22 22 21 21 21 20 20 20 20 20 19 19 18 18 18 18 18 19 19 20 20 20 20 21 21 22 22 22 22 22 22 22 23 24 24 25 25 25
9 9 9 9 9 10 12 14 17 20 20 17 16 17 18 16 14 14 16 17 18 18 16 14 14 17 18 18 18 18 17 17 18 20 22 23 23 23 22 21 21 21 22 22 22 22 21 21 22 22 22 22 22 22 22 22 21 21 21 20 20 20 20 20 20 20 21 21 21 21 21 22 22 23 23 23 23 23 23 23 23 23 24 25 26 27 27
9 9 8 7 7 9 11 13 15 17 16 15 14 15 16 14 12 13 15 16 15 16 15 15 15 16 17 17 18 18 17 18 20 21 22 22 21 20 20 20 21 22 23 22 22 21 21 21 22 22 22 22 22 22 22 22 22 22 22 22 22 22 22 22 22 23 23 23 22 22 23 23 24 25 25 25 25 25 25 25 26 26 26 27 28 28 29
8 8 8 8 8 9 11 13 14 15 15 14 13 15 16 17 16 16 18 18 18 18 18 18 18 19 19 19 19 19 19 21 22 22 21 21 21 21 21 21 21 21 22 22 21 21 20 20 21 21 22 22 22 22 22 23 23 23 23 23 23 23 23 24 24 25 25 25 25 25 25 26 26 27 28 28 28 28 28 28 28 29 29 30 30 31 31
11 11 11 11 12 12 13 14 14 14 13 12 11 12 15 17 19 19 20 20 20 20 18 18 18 19 20 19 19 20 21 22 23 22 21 21 21 21 21 21 21 21 21 21 20 20 20 20 20 21 21 21 21 22 22 23 23 24 24 24 24 24 24 25 26 26 27 27 27 27 27 28 29 30 30 30 30 30 30 30 31 31 32 32 33 33 34
Wind_Direction
254 258 263 223 208 214 218 213 209 206 204 205 207 209 211 207 206 208 203 201 206 207 205 204 202 204 204 201 199 201 205 209 213 217 222 225 226 225 227 230 233 235 239 245 251 257 262 264 267 271 269 249 224 217 216 214 215 220 225 229 234 241 248 255 263 270 279 290 299 304 307 309 309 308 309 311 311 313 315 317 319 322 325 328 330 332 335
256 261 271 233 204 208 214 211 208 208 207 207 210 211 214 217 219 221 217 212 213 214 214 210 205 206 209 206 203 201 203 208 212 215 220 224 225 225 226 229 232 235 242 250 256 261 260 259 261 261 250 229 216 214 212 210 214 218 222 227 232 239 246 252 259 269 282 293 299 303 306 308 308 309 310 311 312 313 315 317 320 323 325 327 329 331 334
236 252 250 210 197 203 209 207 205 206 206 208 211 212 215 219 219 217 218 216 214 214 219 215 209 208 210 209 207 205 205 208 211 212 215 219 222 224 227 232 237 243 248 253 258 260 257 253 251 242 228 218 215 212 209 209 212 216 220 225 230 236 243 249 257 270 283 291 298 303 306 308 309 310 311 312 312 313 315 318 321 324 326 327 328 330 332
186 180 163 167 185 195 201 199 197 200 201 202 207 210 213 217 215 210 210 213 212 206 206 210 211 211 212 213 211 208 207 210 213 216 218 220 224 228 233 240 245 249 251 253 257 258 255 250 238 220 211 212 212 209 207 208 211 214 219 223 228 234 239 245 255 267 279 290 297 302 305 309 310 310 311 312 313 314 317 321 323 324 326 327 328 330 332
176 165 146 144 158 174 184 183 184 190 193 194 198 200 202 208 212 213 213 216 216 211 207 206 205 207 211 214 214 212 210 210 213 219 223 225 228 232 238 243 247 251 253 255 256 256 258 255 235 212 204 205 206 203 203 207 210 213 217 222 227 231 235 241 251 263 277 289 297 302 305 308 309 310 311 313 315 317 321 323 324 325 327 329 330 332 335
179 185 174 140 146 164 167 169 172 179 185 186 189 191 193 197 203 208 208 208 215 223 222 213 206 205 204 205 209 214 215 213 214 218 222 226 229 233 237 241 245 251 253 252 252 255 256 246 227 216 208 202 200 199 201 206 209 212 217 222 225 229 232 238 248 261 276 288 296 301 305 307 308 310 312 315 317 320 323 324 325 328 330 331 333 336 338
182 196 209 208 215 203 172 162 163 167 176 185 191 196 201 204 206 208 204 199 209 221 219 208 209 209 203 199 203 209 212 214 214 215 216 218 223 229 234 239 243 247 248 246 247 252 245 221 211 215 214 205 199 197 199 205 209 212 218 222 225 229 232 237 247 261 276 289 297 301 304 306 309 311 313 316 320 321 324 326 329 331 332 334 337 339 339
179 189 199 216 285 235 193 183 179 171 170 181 189 194 202 209 213 215 209 203 206 212 207 200 202 201 198 199 203 204 205 206 208 210 211 216 223 229 234 239 242 243 243 243 244 243 231 213 206 210 214 209 199 195 199 204 208 213 219 224 228 232 235 239 251 267 281 292 299 302 305 307 308 311 314 318 322 324 326 329 331 333 337 339 340 341 343
181 180 194 226 273 262 214 210 208 198 191 189 191 191 196 203 207 209 206 200 203 208 204 199 197 195 194 196 197 196 199 201 202 204 208 215 222 229 235 240 242 239 237 237 236 231 223 217 210 207 211 208 197 193 197 202 208 215 221 227 232 234 237 245 259 274 287 295 299 302 305 307 309 313 317 321 325 328 331 334 337 339 340 340 340 343 347
194 186 184 219 259 254 230 223 216 213 212 208 204 204 201 196 196 202 201 196 197 203 204 200 197 197 197 195 190 190 196 201 202 202 206 212 218 225 231 234 232 230 229 228 227 223 218 218 214 209 207 202 193 190 193 201 211 218 223 229 233 236 243 255 269 281 290 295 299 301 304 308 312 316 322 327 331 334 336 338 340 338 337 338 342 347 351
199 195 183 192 216 232 239 230 216 214 215 211 209 213 213 206 199 201 201 195 194 199 203 203 201 202 203 199 191 192 198 201 202 202 204 209 213 217 224 228 227 227 226 223 222 221 217 212 208 206 204 196 188 186 191 203 213 219 224 229 232 239 251 262 272 280 286 289 295 300 304 310 317 323 330 334 334 336 337 338 336 335 338 345 352 357 360
197 198 194 201 214 223 228 220 210 209 209 206 201 199 214 218 219 220 218 210 201 199 202 207 208 210 212 210 203 201 201 201 200 201 203 210 216 216 216 217 219 223 224 222 220 218 212 203 197 198 201 195 187 186 194 206 215 220 225 229 235 243 253 259 264 270 278 287 295 302 310 319 329 334 335 334 332 334 336 337 339 347 358 7 12 17 22
194 194 194 200 209 214 214 207 204 204 202 199 198 202 216 228 232 231 228 223 214 207 207 211 213 213 216 219 217 212 206 202 200 199 201 208 217 219 212 207 210 216 220 219 211 203 199 194 188 188 194 194 190 190 199 209 217 222 226 232 239 244 246 249 255 262 276 289 298 310 323 334 338 334 329 329 332 337 343 352 6 21 28 31 34 38 40
191 194 197 204 210 213 213 205 200 201 200 202 215 227 232 233 232 226 222 220 216 210 210 214 214 211 210 212 215 215 212 206 202 202 204 205 207 207 201 201 209 215 216 212 202 194 191 189 186 185 188 190 189 192 201 210 216 222 229 233 234 232 231 234 245 257 271 290 310 325 338 340 333 325 326 334 346 2 18 33 44 47 47 47 49 49 47
187 189 189 194 213 215 217 215 210 210 216 224 235 238 233 230 230 224 221 220 215 209 209 212 213 211 209 207 206 208 211 209 207 211 213 207 203 199 194 198 206 210 212 207 196 188 187 188 187 185 184 185 187 193 200 207 214 220 224 224 220 217 219 226 234 240 255 311 337 340 339 330 322 326 345 10 33 49 56 60 61 59 57 56 54 52 49
189 189 194 210 224 219 218 222 224 227 234 238 241 238 233 234 233 225 222 221 217 212 211 211 212 210 207 204 200 199 203 206 210 217 217 210 204 199 195 201 205 202 201 200 193 186 187 189 186 184 183 184 189 196 200 203 209 214 213 210 207 208 211 213 210 203 183 7 344 334 328 322 328 19 54 65 71 72 71 70 68 64 60 57 54 52 48
206 208 213 222 231 230 230 234 237 239 240 241 242 241 239 238 232 224 219 217 217 217 213 208 207 206 200 196 195 196 201 205 210 214 215 210 205 201 198 203 208 201 192 191 192 192 191 188 186 186 184 185 190 196 200 203 203 200 198 198 197 199 201 195 182 160 114 332 324 324 324 333 93 92 88 87 85 82 78 75 70 65 60 56 51 47 41
220 225 229 231 235 240 242 242 243 240 237 239 241 242 242 239 229 220 217 215 218 219 210 199 197 196 190 188 191 196 200 204 207 208 209 209 207 204 201 202 204 198 187 184 190 196 194 189 188 189 188 189 192 194 193 193 191 187 188 190 189 189 186 176 162 156 301 307 311 327 124 125 113 103 100 98 92 86 80 75 69 63 57 50 43 37 32
226 230 234 234 236 240 240 239 238 235 233 236 239 241 244 241 230 221 219 218 216 212 202 193 188 188 187 187 191 195 196 200 204 205 206 209 209 207 204 202 200 194 185 183 189 195 193 190 191 194 197 197 194 192 188 182 180 182 183 182 179 177 173 166 168 256 287 279 174 136 131 125 116 109 107 102 94 87 79 72 65 57 49 41 32 26 22
231 234 237 236 236 236 236 235 236 235 234 234 236 238 241 239 232 223 220 219 214 207 203 197 189 187 188 189 192 196 196 196 201 205 208 211 208 202 198 195 192 187 183 184 191 193 191 191 194 197 199 195 190 189 183 174 172 176 179 178 174 170 168 173 219 252 225 166 147 138 132 125 117 112 109 103 95 87 77 65 53 43 37 30 22 16 14
237 238 239 238 236 235 235 236 238 239 238 236 238 241 242 240 234 224 218 217 215 210 210 208 197 190 189 190 191 197 196 193 198 206 209 206 198 188 180 178 179 180 181 186 192 193 193 195 195 193 192 191 189 184 174 168 171 174 174 174 172 169 173 194 215 196 166 151 144 140 134 127 119 113 108 101 91 82 68 51 40 31 24 19 12 7 7
244 243 241 239 239 237 235 235 237 239 239 239 240 242 242 240 234 224 217 217 215 208 204 205 201 192 188 187 189 195 197 196 199 203 198 189 181 174 170 169 173 178 183 187 192 194 196 195 190 187 188 188 185 178 171 169 172 173 171 171 174 176 182 189 179 166 155 149 145 141 135 128 121 113 105 95 83 71 51 35 26 20 12 6 2 359 358
243 244 241 238 238 239 237 236 237 238 239 240 242 247 249 245 235 220 213 216 217 207 196 192 194 192 188 187 187 190 194 198 200 196 187 180 176 172 170 172 175 180 184 187 190 192 192 189 183 182 183 183 179 177 174 172 173 176 176 176 178 179 174 169 164 158 154 151 146 140 133 126 119 112 102 87 66 48 34 21 12 6 359 356 355 354 352
234 239 239 232 229 232 236 237 236 236 238 240 246 254 256 250 235 218 210 210 212 205 195 189 191 194 193 189 185 185 192 196 192 187 183 180 177 175 176 177 181 185 186 186 187 188 186 183 180 180 181 178 175 174 174 173 176 182 184 183 180 171 163 161 159 156 154 151 144 135 127 121 116 107 94 69 40 22 13 4 356 350 350 355 357 356 354
222 226 234 226 219 220 226 231 234 237 238 240 245 250 250 249 238 218 206 201 202 201 196 191 192 197 195 187 180 181 191 194 187 182 181 179 178 180 184 185 187 190 189 186 186 187 183 180 178 179 180 177 173 171 172 176 181 187 192 192 180 164 158 159 159 155 152 146 139 132 126 121 115 103 84 52 9 348 343 344 347 350 356 1 2 1 359
216 224 237 225 215 213 216 221 229 237 241 241 242 237 231 235 235 215 198 192 194 199 197 193 195 200 197 188 182 183 187 190 187 185 184 183 182 185 190 191 191 191 190 189 188 186 182 180 179 179 178 175 172 173 176 180 187 193 196 191 177 165 159 158 158 154 149 143 137 132 128 124 117 109 90 26 339 336 338 341 347 355 359 1 3 2 1
221 235 243 221 211 210 213 216 222 231 239 240 235 225 216 219 226 218 200 189 187 195 203 202 198 198 194 188 187 189 191 193 193 190 188 188 188 189 192 193 191 190 190 190 188 186 185 184 182 180 178 175 175 178 180 183 189 193 186 177 171 165 159 158 157 153 147 141 135 131 131 134 140 157 337 347 346 344 342 341 347 353 355 358 2 3 1
240 250 252 237 221 212 209 212 221 232 238 235 225 215 208 209 213 219 211 191 181 188 206 208 198 191 186 181 183 190 197 204 204 199 196 193 190 192 194 192 189 189 189 187 186 187 189 189 185 182 181 178 178 181 183 185 189 188 177 170 167 163 159 158 157 150 142 137 136 138 149 167 222 315 338 346 347 346 344 344 345 349 353 357 359 360 0
253 264 270 263 245 224 214 218 231 241 241 230 218 209 205 205 208 213 208 190 180 186 202 207 198 188 181 179 183 192 203 211 213 209 205 200 195 195 195 192 189 189 187 183 182 185 189 191 186 182 180 180 180 183 186 188 188 182 175 171 167 162 157 156 154 148 143 144 150 158 170 192 312 335 338 342 347 346 344 342 344 349 354 357 356 356 359
243 250 265 268 241 224 222 226 234 239 237 224 213 207 204 203 207 210 202 192 186 188 197 202 196 183 176 182 192 197 203 208 207 204 205 204 202 200 198 195 192 189 184 179 179 181 184 185 181 178 179 181 183 186 191 192 186 180 176 172 168 162 158 157 155 152 152 156 162 168 171 178 294 338 336 340 348 352 348 348 354 357 358 357 355 355 359
246 242 241 235 219 221 231 236 235 232 223 206 200 200 199 198 201 203 198 192 188 188 191 197 195 186 183 187 190 191 195 198 194 187 189 197 202 203 199 194 191 188 185 183 182 179 179 180 179 179 182 185 187 192 197 193 185 180 177 173 169 164 161 160 159 160 161 163 167 169 168 165 143 3 339 332 338 346 350 353 358 358 355 353 352 354 357
257 246 241 239 235 239 252 254 245 232 215 199 194 192 191 190 192 193 193 192 190 188 190 192 192 191 192 189 187 191 195 193 186 183 182 188 196 196 191 186 183 181 182 186 185 182 182 185 185 184 185 187 192 197 197 191 184 180 176 172 170 167 165 164 164 165 165 164 165 167 168 162 142 70 331 318 325 338 347 349 350 349 346 345 346 349 352
253 245 239 238 244 254 259 251 240 231 218 205 199 196 191 189 186 180 180 184 184 184 186 189 190 191 191 188 189 193 190 181 178 181 182 185 190 188 184 182 180 176 176 182 185 184 185 187 188 188 189 190 192 193 192 188 184 180 176 173 171 170 169 167 167 166 166 167 170 173 178 182 176 152 307 312 324 334 339 339 338 337 335 335 337 342 345
256 257 251 244 242 246 247 234 222 216 211 206 203 195 187 184 181 173 167 170 176 179 181 184 188 191 192 195 197 190 179 178 187 188 184 186 189 186 184 184 180 175 177 186 190 188 187 189 190 190 192 194 192 190 191 189 184 180 177 174 172 172 170 168 169 170 171 173 177 182 189 197 202 215 244 288 319 323 322 324 325 325 326 328 332 336 339
256 259 260 251 242 239 238 231 219 210 207 206 202 194 186 184 183 177 171 172 177 182 183 187 192 195 198 201 197 184 175 183 194 189 183 188 190 186 186 187 181 175 177 185 191 191 189 189 190 190 192 194 192 190 191 190 185 181 179 176 174 173 172 170 171 175 178 181 185 191 201 210 216 224 236 262 294 299 301 309 313 313 317 322 329 333 334
250 251 252 250 243 236 230 225 218 208 200 199 200 200 196 191 186 182 179 180 183 185 185 187 192 196 196 195 189 180 178 188 188 181 182 191 191 187 190 192 187 181 181 189 198 200 193 188 189 191 193 194 193 191 191 189 185 183 181 178 175 174 173 171 173 179 185 191 196 203 212 217 217 220 230 250 271 279 285 296 302 305 310 317 322 324 324
240 241 243 243 238 231 224 220 214 205 197 193 193 197 197 194 192 192 189 186 188 192 190 186 188 192 191 187 183 182 186 190 187 183 185 189 189 188 192 195 192 189 188 195 204 204 197 192 192 194 195 194 192 191 191 189 186 184 182 179 176 175 175 176 179 184 191 198 204 211 216 217 215 217 225 237 248 259 269 281 290 297 303 309 311 312 311
235 234 235 234 228 219 214 210 203 197 196 194 192 192 191 192 196 200 195 189 191 195 195 193 196 201 200 199 198 195 190 190 192 190 186 184 185 190 195 197 195 192 193 202 208 203 196 193 195 196 197 195 192 191 190 188 186 185 183 180 179 180 181 184 189 193 198 204 209 213 214 215 218 226 234 240 245 253 263 274 283 290 296 300 302 303 303
234 228 226 222 215 209 204 199 192 191 193 193 192 192 193 193 197 200 197 194 195 196 194 193 195 196 196 199 205 196 186 183 189 191 186 181 183 191 199 204 201 196 198 206 207 200 194 192 195 198 198 196 193 191 189 187 186 186 185 183 184 185 187 192 197 202 206 211 214 216 218 221 227 235 241 247 252 258 265 271 278 284 289 293 296 296 297
228 220 212 207 208 209 203 193 189 191 193 192 189 190 193 196 197 196 194 194 196 196 195 195 195 193 194 200 205 195 181 178 183 191 194 195 196 200 207 210 205 202 206 208 201 194 191 193 196 199 200 198 194 192 189 188 189 189 188 188 189 189 192 197 202 207 214 220 222 224 227 231 236 241 246 251 256 261 265 271 276 280 284 287 289 291 294
220 212 204 202 209 212 202 190 188 190 189 188 189 190 191 194 197 198 197 198 198 198 198 199 198 197 199 203 204 199 194 193 193 195 203 210 211 209 209 208 205 207 210 204 193 189 190 194 197 201 201 199 197 194 192 191 192 192 191 192 193 194 198 204 209 214 221 227 229 231 235 238 241 244 248 251 255 258 262 267 271 275 278 280 281 283 287
213 210 209 209 212 207 194 186 187 187 184 184 190 194 194 197 204 208 207 204 201 202 202 200 197 198 201 201 197 196 201 204 198 191 195 210 217 211 205 207 211 212 207 198 191 190 192 195 198 202 202 200 199 197 195 194 194 193 194 195 196 199 205 212 216 222 227 230 232 235 238 241 243 246 247 250 253 255 258 263 267 270 274 275 275 277 280
209 209 211 216 218 209 196 190 191 193 192 191 191 191 190 195 208 213 208 201 199 200 197 194 193 195 198 198 197 197 201 202 196 187 192 206 213 208 203 206 208 205 199 195 194 196 196 196 199 202 201 199 198 198 197 196 196 196 196 198 200 204 210 215 220 225 230 233 235 237 239 241 244 247 249 251 253 255 258 262 264 267 269 270 271 273 275
207 209 214 216 216 211 203 196 192 195 199 197 193 191 192 193 198 202 198 193 193 193 190 188 190 192 193 194 196 196 196 195 194 195 202 208 209 208 207 204 198 194 196 199 200 200 199 199 201 202 200 198 198 198 199 199 200 200 200 202 205 210 214 218 223 228 232 235 237 239 241 243 246 249 252 254 256 258 260 262 264 265 267 268 269 270 272
205 212 217 212 204 205 209 202 195 197 202 200 196 197 199 197 194 195 193 189 186 185 183 183 185 188 190 192 193 194 195 200 205 208 209 210 211 213 211 202 194 193 198 201 202 203 204 204 203 202 200 199 200 201 201 201 202 203 204 207 211 215 219 223 227 232 236 239 242 244 245 246 248 250 254 256 258 259 260 262 263 264 265 267 269 270 271
199 206 210 202 194 199 206 201 191 190 192 191 189 193 198 199 196 192 189 187 184 181 180 182 185 188 190 191 192 195 199 204 206 207 207 207 209 209 207 201 198 199 201 201 202 204 207 207 206 205 203 203 204 205 206 206 206 206 207 210 214 220 225 229 233 237 241 243 245 246 248 249 251 254 257 259 261 262 262 262 262 262 263 264 266 268 270
199 203 206 199 192 194 197 192 183 179 179 182 185 188 193 200 199 190 184 185 188 187 185 187 190 191 192 193 196 201 205 208 211 213 212 207 201 199 199 200 201 202 202 202 202 204 204 205 206 206 206 208 210 211 213 214 214 214 215 215 218 222 227 231 236 241 245 247 247 248 250 252 255 258 260 263 264 264 264 263 262 262 262 263 264 266 267
200 203 204 200 195 196 198 193 184 180 182 190 197 195 195 199 201 194 186 186 188 189 190 192 190 188 190 193 198 203 209 213 214 213 209 202 197 196 198 200 201 202 202 202 202 202 201 202 204 205 208 212 214 216 217 219 221 222 223 223 224 226 229 233 237 242 246 248 250 252 254 256 258 260 263 265 265 265 264 264 263 264 264 266 267 267 268
197 197 197 195 192 192 193 189 182 181 186 195 200 197 196 198 201 197 194 193 193 195 199 201 196 194 198 201 202 205 210 208 200 195 194 194 195 197 199 200 200 201 201 201 201 200 200 202 205 208 212 215 218 220 222 223 225 226 228 229 231 234 236 237 240 243 246 249 252 255 257 259 261 262 264 265 265 265 265 264 264 265 266 267 268 269 270
194 190 190 189 183 176 175 175 178 183 190 196 197 197 200 203 203 202 205 207 207 206 206 203 198 199 204 206 205 206 205 197 190 188 191 194 196 199 201 201 199 198 197 197 198 199 202 206 211 215 218 221 224 226 228 229 231 232 233 234 236 239 241 243 246 247 249 251 253 256 259 261 262 263 263 264 264 265 265 266 266 266 266 267 268 269 270
185 182 184 185 180 174 175 181 188 194 201 205 206 205 205 205 206 207 209 209 210 212 214 213 210 208 208 206 204 201 197 192 190 193 196 197 195 195 195 195 195 196 197 199 200 202 207 212 217 221 225 229 232 233 235 236 238 239 240 241 243 245 248 250 252 253 254 255 256 257 259 262 263 264 265 265 265 266 266 267 267 268 268 268 269 270 271
184 183 186 189 188 187 188 191 194 197 199 198 195 194 195 199 202 206 208 209 211 215 218 217 212 206 201 200 200 198 194 192 194 196 197 196 194 192 191 192 194 198 201 204 206 209 213 219 223 228 233 237 240 242 244 245 246 248 249 251 252 254 255 257 258 260 261 261 262 262 263 265 266 267 268 269 270 270 271 271 272 272 272 273 273 274 274
Height
3035 3035 3036 3037 3038 3040 3042 3044 3047 3049 3052 3054 3056 3058 3060 3061 3062 3064 3065 3067 3068 3069 3071 3072 3074 3075 3077 3078 3080 3082 3084 3087 3089 3091 3094 3096 3099 3101 3104 3106 3108 3110 3111 3112 3114 3117 3119 3119 3119 3120 3120 3121 3122 3124 3126 3127 3129 3130 3132 3132 3133 3133 3134 3134 3135 3135 3135 3134 3134 3133 3133 3132 3132 3131 3130 3129 3128 3127 3126 3125 3123 3121 3119 3118 3115 3114 3112
3035 3035 3035 3036 3037 3039 3041 3043 3045 3048 3051 3053 3055 3057 3059 3060 3061 3063 3065 3066 3067 3068 3069 3071 3073 3074 3076 3078 3079 3081 3083 3086 3088 3091 3093 3095 3097 3100 3103 3105 3107 3109 3110 3112 3114 3116 3116 3116 3117 3117 3118 3120 3121 3123 3124 3126 3127 3129 3130 3130 3131 3132 3132 3133 3133 3133 3133 3133 3132 3132 3131 3131 3130 3129 3129 3128 3127 3126 3125 3123 3122 3120 3118 3116 3114 3112 3111
3035 3035 3035 3035 3036 3038 3040 3042 3044 3046 3049 3051 3053 3055 3057 3058 3060 3062 3063 3064 3065 3067 3068 3069 3071 3072 3074 3076 3078 3080 3082 3085 3087 3090 3092 3095 3097 3100 3102 3103 3105 3108 3110 3111 3112 3112 3113 3113 3114 3115 3117 3119 3120 3122 3123 3124 3126 3127 3128 3129 3130 3131 3131 3132 3132 3131 3131 3131 3131 3130 3130 3129 3128 3128 3127 3126 3125 3124 3123 3122 3120 3118 3117 3115 3113 3112 3110
3036 3036 3035 3035 3036 3038 3039 3041 3042 3045 3046 3048 3050 3052 3054 3056 3058 3059 3061 3063 3064 3066 3067 3068 3069 3071 3073 3075 3077 3079 3081 3083 3086 3088 3090 3093 3096 3099 3101 3103 3104 3105 3107 3108 3108 3109 3109 3109 3110 3112 3114 3116 3119 3120 3121 3123 3124 3126 3127 3128 3128 3129 3130 3130 3130 3130 3130 3130 3129 3129 3128 3127 3127 3126 3125 3125 3124 3123 3121 3120 3119 3117 3116 3114 3112 3111 3109
3035 3036 3036 3036 3037 3039 3039 3040 3041 3043 3045 3047 3049 3051 3052 3054 3056 3058 3060 3062 3063 3065 3066 3067 3068 3070 3072 3073 3075 3077 3079 3082 3084 3087 3090 3093 3096 3098 3100 3101 3101 3102 3103 3104 3105 3105 3106 3107 3109 3110 3112 3114 3116 3118 3120 3121 3123 3125 3125 3126 3127 3128 3128 3128 3128 3128 3128 3128 3128 3127 3127 3126 3125 3125 3124 3123 3122 3121 3120 3119 3117 3116 3114 3113 3111 3110 3108
3035 3036 3037 3037 3038 3039 3039 3040 3041 3042 3044 3045 3047 3049 3051 3053 3055 3057 3059 3061 3062 3064 3065 3066 3067 3069 3071 3072 3074 3077 3079 3081 3084 3087 3090 3093 3095 3097 3098 3098 3099 3099 3100 3101 3102 3103 3104 3107 3109 3111 3112 3113 3115 3116 3118 3120 3122 3123 3124 3125 3126 3126 3127 3127 3127 3127 3127 3126 3126 3126 3125 3124 3124 3123 3123 3122 3121 3120 3119 3117 3116 3115 3113 3112 3111 3109 3108
3034 3036 3038 3038 3039 3038 3039 3040 3041 3042 3043 3045 3046 3048 3050 3052 3054 3056 3058 3059 3061 3063 3064 3065 3066 3068 3070 3071 3073 3076 3079 3081 3084 3087 3089 3091 3093 3094 3095 3096 3097 3098 3098 3099 3100 3101 3103 3106 3108 3110 3112 3113 3113 3115 3117 3119 3120 3121 3122 3124 3124 3125 3125 3125 3125 3125 3125 3125 3124 3124 3124 3123 3123 3122 3121 3121 3120 3119 3117 3116 3115 3114 3113 3111 3110 3109 3107
3034 3035 3037 3038 3037 3038 3039 3040 3041 3042 3043 3044 3045 3047 3048 3050 3052 3054 3056 3058 3060 3062 3063 3064 3065 3067 3069 3071 3073 3075 3078 3081 3084 3086 3087 3089 3091 3093 3094 3094 3095 3096 3097 3098 3099 3100 3102 3104 3105 3107 3110 3112 3112 3114 3116 3117 3119 3120 3121 3122 3123 3123 3123 3123 3123 3124 3123 3123 3123 3123 3122 3122 3122 3121 3120 3119 3118 3117 3116 3115 3114 3113 3112 3111 3109 3108 3107
3032 3034 3037 3038 3037 3037 3037 3039 3040 3041 3043 3044 3045 3046 3048 3049 3051 3053 3054 3056 3057 3060 3062 3063 3064 3066 3067 3069 3071 3074 3077 3079 3081 3083 3086 3088 3090 3091 3092 3092 3093 3094 3095 3096 3097 3099 3101 3103 3104 3106 3108 3110 3111 3113 3115 3116 3118 3119 3120 3121 3121 3122 3122 3122 3122 3122 3122 3121 3121 3121 3121 3121 3121 3120 3119 3118 3117 3117 3116 3115 3113 3112 3111 3110 3108 3107 3106
3032 3034 3037 3039 3038 3037 3036 3037 3039 3041 3042 3044 3045 3046 3047 3048 3050 3052 3053 3054 3056 3058 3060 3062 3063 3064 3066 3067 3069 3071 3073 3075 3078 3080 3083 3085 3087 3088 3089 3090 3091 3092 3093 3094 3095 3097 3099 3101 3102 3104 3107 3109 3110 3112 3114 3115 3117 3118 3119 3120 3120 3120 3120 3120 3120 3120 3120 3120 3120 3120 3120 3120 3119 3119 3118 3117 3116 3116 3115 3114 3113 3111 3110 3109 3108 3106 3105
3031 3033 3035 3037 3037 3035 3035 3037 3039 3040 3041 3043 3044 3045 3046 3047 3049 3051 3052 3053 3054 3056 3058 3060 3061 3062 3063 3065 3067 3069 3070 3072 3075 3077 3080 3082 3084 3086 3088 3089 3090 3091 3092 3093 3095 3096 3098 3099 3100 3104 3106 3108 3109 3111 3112 3114 3116 3117 3118 3118 3119 3119 3119 3119 3119 3119 3119 3119 3120 3119 3119 3119 3118 3118 3117 3116 3116 3115 3114 3113 3112 3111 3110 3108 3107 3106 3105
3029 3031 3032 3033 3034 3034 3035 3036 3038 3039 3040 3041 3043 3044 3044 3046 3048 3050 3051 3052 3053 3054 3055 3057 3059 3060 3062 3064 3065 3066 3067 3070 3072 3075 3078 3080 3082 3084 3085 3086 3088 3089 3091 3092 3095 3096 3097 3097 3099 3103 3106 3107 3108 3110 3112 3114 3115 3116 3116 3117 3117 3117 3117 3117 3118 3118 3118 3118 3118 3118 3118 3118 3117 3117 3116 3116 3115 3114 3113 3112 3111 3110 3109 3108 3107 3106 3105
3027 3029 3030 3031 3032 3032 3034 3035 3036 3038 3039 3040 3041 3042 3043 3044 3046 3048 3049 3051 3052 3052 3053 3055 3057 3059 3061 3062 3063 3064 3065 3067 3070 3073 3076 3078 3080 3082 3084 3085 3086 3088 3090 3092 3094 3095 3095 3096 3098 3101 3104 3106 3107 3109 3111 3113 3114 3114 3115 3116 3116 3116 3116 3116 3117 3117 3117 3117 3117 3117 3117 3117 3117 3116 3115 3115 3114 3113 3112 3112 3111 3110 3109 3108 3107 3106 3105
3025 3027 3029 3030 3030 3031 3032 3034 3035 3036 3037 3037 3038 3040 3041 3043 3044 3045 3047 3048 3049 3050 3052 3053 3055 3056 3058 3059 3061 3062 3064 3066 3068 3070 3072 3075 3077 3079 3081 3083 3084 3086 3089 3091 3092 3093 3094 3096 3097 3100 3102 3104 3106 3108 3110 3112 3112 3113 3114 3114 3114 3114 3115 3115 3116 3116 3116 3116 3116 3116 3116 3116 3116 3115 3115 3114 3113 3113 3112 3112 3111 3110 3109 3109 3108 3107 3106
3023 3025 3027 3028 3028 3029 3030 3032 3032 3033 3034 3034 3036 3038 3040 3040 3041 3043 3044 3045 3046 3048 3049 3050 3052 3054 3055 3056 3058 3061 3063 3065 3067 3069 3070 3072 3074 3076 3078 3080 3083 3085 3088 3090 3091 3092 3094 3095 3096 3098 3100 3102 3105 3107 3108 3110 3111 3111 3112 3112 3113 3113 3114 3114 3115 3115 3115 3115 3115 3116 3116 3116 3115 3115 3114 3113 3113 3113 3112 3112 3111 3110 3110 3109 3109 3108 3108
3021 3022 3024 3024 3025 3027 3029 3029 3030 3031 3032 3033 3035 3036 3037 3038 3040 3040 3041 3043 3044 3045 3046 3048 3049 3051 3052 3054 3057 3059 3061 3063 3065 3067 3068 3070 3073 3075 3077 3080 3082 3084 3087 3088 3090 3091 3093 3094 3096 3098 3099 3101 3103 3106 3107 3108 3109 3110 3110 3111 3111 3112 3113 3113 3114 3114 3114 3115 3115 3115 3115 3115 3115 3114 3114 3113 3113 3113 3113 3112 3112 3111 3111 3110 3110 3109 3109
3019 3020 3021 3022 3024 3025 3027 3027 3028 3029 3030 3031 3033 3034 3035 3037 3038 3038 3039 3041 3042 3043 3044 3045 3046 3048 3050 3053 3055 3058 3060 3062 3063 3065 3066 3069 3071 3074 3076 3079 3081 3083 3085 3088 3089 3090 3092 3094 3096 3097 3099 3100 3102 3105 3107 3107 3108 3108 3109 3110 3110 3111 3112 3112 3113 3113 3114 3114 3114 3114 3114 3114 3114 3114 3114 3114 3113 3113 3113 3113 3112 3112 3112 3111 3111 3110 3110
3018 3019 3020 3021 3022 3023 3024 3026 3027 3028 3029 3030 3031 3032 3033 3034 3035 3036 3037 3038 3039 3041 3042 3042 3044 3047 3049 3051 3054 3056 3059 3061 3062 3063 3065 3067 3069 3072 3075 3078 3080 3082 3084 3086 3088 3089 3091 3093 3095 3096 3098 3099 3101 3103 3105 3105 3106 3107 3108 3109 3110 3110 3111 3112 3112 3113 3113 3113 3113 3114 3114 3114 3114 3114 3114 3114 3114 3114 3114 3114 3113 3113 3113 3112 3112 3111 3110
3016 3017 3018 3019 3021 3022 3023 3024 3025 3026 3028 3028 3029 3030 3031 3032 3033 3034 3035 3036 3037 3039 3040 3042 3043 3045 3048 3050 3052 3054 3057 3059 3061 3062 3064 3066 3068 3071 3074 3076 3079 3081 3083 3085 3087 3089 3091 3093 3095 3096 3098 3099 3100 3102 3103 3104 3105 3106 3107 3108 3109 3109 3110 3111 3111 3112 3112 3112 3113 3113 3114 3114 3114 3114 3114 3114 3114 3115 3115 3114 3114 3114 3113 3113 3112 3111 3110
3014 3015 3017 3018 3019 3020 3021 3023 3024 3025 3026 3027 3028 3029 3030 3031 3032 3033 3034 3035 3036 3038 3039 3041 3042 3044 3047 3049 3051 3053 3055 3057 3060 3062 3064 3065 3067 3070 3072 3074 3077 3079 3082 3084 3086 3088 3090 3092 3094 3096 3097 3098 3099 3101 3102 3103 3104 3105 3106 3107 3108 3109 3110 3110 3111 3111 3111 3112 3113 3113 3114 3114 3114 3115 3115 3115 3115 3115 3115 3115 3115 3114 3113 3113 3112 3112 3111
3013 3014 3015 3017 3017 3018 3019 3021 3022 3023 3024 3025 3026 3027 3028 3029 3030 3031 3032 3033 3035 3037 3039 3040 3041 3043 3046 3048 3050 3052 3054 3056 3059 3061 3063 3064 3066 3068 3070 3073 3076 3079 3081 3084 3086 3088 3090 3092 3094 3095 3096 3098 3099 3100 3101 3102 3103 3105 3106 3106 3107 3108 3109 3110 3110 3110 3111 3112 3113 3113 3114 3114 3115 3115 3115 3115 3115 3116 3116 3115 3115 3114 3114 3113 3112 3112 3111
3011 3013 3014 3015 3016 3016 3017 3018 3020 3021 3022 3023 3024 3025 3026 3027 3028 3029 3031 3032 3033 3035 3037 3039 3041 3043 3045 3048 3050 3052 3054 3056 3058 3060 3062 3064 3065 3067 3070 3073 3075 3078 3081 3083 3085 3088 3090 3092 3093 3094 3096 3097 3098 3099 3100 3101 3103 3104 3105 3106 3107 3108 3109 3109 3109 3110 3111 3112 3113 3114 3114 3114 3115 3115 3115 3116 3116 3116 3115 3115 3115 3114 3114 3114 3113 3112 3111
3010 3011 3012 3012 3014 3015 3016 3017 3018 3019 3020 3021 3022 3023 3024 3025 3026 3027 3029 3030 3032 3033 3034 3037 3040 3043 3045 3047 3049 3051 3054 3056 3057 3059 3061 3063 3065 3067 3069 3072 3075 3077 3080 3082 3085 3087 3089 3091 3092 3094 3095 3096 3098 3099 3100 3101 3102 3103 3104 3106 3106 3107 3108 3108 3109 3110 3111 3112 3113 3114 3114 3114 3115 3115 3116 3116 3116 3116 3115 3115 3115 3115 3115 3114 3113 3112 3112
3009 3009 3010 3010 3012 3013 3015 3016 3016 3017 3018 3019 3020 3021 3022 3022 3023 3025 3026 3028 3030 3032 3033 3035 3039 3042 3045 3047 3049 3052 3054 3056 3057 3059 3061 3063 3065 3068 3070 3072 3075 3077 3080 3082 3084 3087 3088 3090 3092 3093 3094 3095 3097 3098 3099 3100 3101 3103 3104 3105 3106 3107 3107 3108 3109 3110 3111 3112 3113 3113 3114 3114 3115 3115 3116 3116 3116 3115 3116 3116 3116 3115 3115 3114 3114 3113 3112
3008 3009 3009 3009 3010 3012 3013 3014 3015 3016 3017 3018 3019 3020 3020 3021 3021 3022 3024 3026 3028 3031 3033 3035 3038 3041 3043 3046 3049 3051 3054 3056 3057 3059 3061 3063 3065 3068 3070 3072 3075 3077 3080 3082 3084 3086 3087 3089 3091 3092 3093 3095 3096 3097 3099 3100 3101 3102 3103 3104 3105 3106 3107 3108 3109 3111 3111 3112 3112 3113 3113 3114 3115 3115 3116 3116 3116 3116 3116 3116 3116 3115 3115 3114 3114 3113 3112
3008 3008 3008 3008 3009 3010 3012 3013 3014 3015 3015 3016 3017 3018 3019 3020 3020 3021 3022 3024 3027 3029 3032 3034 3037 3039 3041 3044 3047 3050 3053 3055 3056 3058 3060 3062 3064 3067 3070 3072 3075 3077 3079 3081 3083 3085 3087 3088 3090 3091 3093 3094 3095 3097 3098 3099 3100 3101 3102 3103 3104 3105 3107 3108 3109 3110 3111 3112 3112 3113 3113 3114 3115 3115 3116 3116 3116 3116 3116 3115 3115 3115 3115 3114 3114 3113 3112
3007 3007 3007 3008 3008 3009 3010 3012 3013 3013 3014 3014 3015 3016 3018 3019 3020 3020 3021 3023 3025 3028 3031 3034 3037 3038 3040 3043 3047 3050 3052 3054 3055 3057 3060 3062 3064 3067 3069 3072 3074 3077 3079 3081 3082 3084 3085 3087 3089 3090 3092 3093 3095 3096 3098 3099 3100 3101 3102 3103 3104 3105 3107 3108 3109 3110 3111 3111 3112 3113 3113 3114 3114 3115 3115 3115 3116 3116 3115 3115 3115 3114 3114 3114 3113 3113 3112
3007 3007 3007 3007 3008 3008 3009 3010 3011 3012 3012 3012 3013 3014 3016 3017 3019 3020 3020 3022 3024 3028 3031 3034 3036 3038 3040 3043 3046 3049 3052 3053 3055 3057 3059 3061 3064 3066 3069 3071 3073 3076 3078 3079 3081 3083 3085 3086 3088 3089 3091 3093 3094 3096 3097 3099 3100 3100 3101 3102 3104 3105 3107 3108 3109 3110 3110 3111 3112 3112 3113 3114 3114 3114 3114 3115 3115 3115 3115 3115 3114 3114 3114 3113 3113 3112 3112
3007 3007 3007 3007 3007 3008 3009 3010 3010 3011 3011 3011 3012 3013 3014 3016 3018 3019 3020 3022 3024 3027 3030 3033 3035 3037 3040 3043 3046 3049 3051 3053 3054 3056 3058 3060 3063 3065 3068 3070 3072 3074 3076 3078 3080 3082 3084 3085 3087 3089 3091 3092 3094 3095 3097 3098 3099 3100 3101 3102 3103 3105 3106 3108 3109 3109 3110 3111 3112 3112 3113 3113 3113 3114 3114 3114 3115 3115 3115 3114 3114 3114 3113 3113 3112 3112 3111
3006 3007 3007 3007 3007 3008 3008 3009 3009 3010 3010 3010 3011 3012 3013 3015 3017 3018 3020 3022 3024 3026 3029 3032 3035 3037 3039 3042 3045 3048 3050 3052 3054 3056 3058 3060 3062 3065 3067 3069 3071 3073 3075 3077 3079 3081 3083 3084 3086 3088 3090 3091 3093 3095 3096 3097 3098 3099 3100 3101 3103 3104 3106 3107 3108 3109 3110 3111 3112 3112 3112 3113 3113 3113 3114 3114 3114 3114 3114 3114 3114 3113 3113 3112 3112 3112 3111
3006 3006 3007 3007 3007 3008 3008 3008 3008 3009 3009 3010 3011 3012 3013 3014 3016 3017 3019 3021 3023 3026 3029 3032 3035 3037 3039 3042 3044 3047 3049 3051 3053 3055 3057 3059 3062 3064 3067 3069 3071 3073 3075 3077 3078 3080 3082 3084 3085 3087 3089 3091 3092 3094 3095 3096 3097 3099 3100 3101 3103 3104 3105 3107 3108 3109 3110 3110 3111 3111 3112 3113 3113 3113 3113 3113 3113 3113 3113 3113 3113 3113 3112 3112 3112 3111 3111
3006 3006 3006 3007 3007 3007 3007 3008 3008 3009 3009 3010 3011 3012 3013 3014 3016 3017 3019 3021 3023 3026 3029 3031 3034 3036 3039 3041 3043 3045 3048 3050 3052 3054 3056 3059 3061 3064 3067 3069 3070 3072 3074 3076 3078 3080 3081 3083 3085 3086 3088 3090 3091 3093 3094 3096 3097 3098 3100 3101 3103 3104 3105 3106 3108 3108 3109 3110 3110 3111 3111 3112 3113 3113 3113 3113 3113 3113 3113 3112 3112 3112 3112 3111 3111 3111 3110
3005 3005 3006 3006 3006 3007 3007 3008 3008 3009 3010 3011 3011 3012 3013 3015 3016 3017 3019 3021 3024 3026 3029 3031 3034 3036 3038 3040 3043 3045 3047 3049 3051 3053 3056 3058 3060 3063 3065 3067 3069 3071 3073 3075 3077 3079 3081 3083 3084 3086 3087 3089 3090 3092 3094 3095 3096 3098 3099 3101 3102 3104 3105 3106 3107 3108 3108 3109 3109 3110 3111 3112 3112 3113 3113 3113 3113 3112 3112 3112 3111 3111 3111 3111 3110 3110 3109
3004 3005 3005 3006 3006 3006 3007 3008 3008 3009 3010 3011 3012 3012 3013 3015 3016 3018 3020 3022 3024 3027 3029 3031 3033 3036 3038 3040 3043 3044 3046 3049 3051 3053 3055 3057 3060 3062 3064 3066 3067 3069 3071 3074 3076 3078 3080 3082 3083 3085 3087 3088 3090 3091 3093 3094 3096 3097 3099 3100 3102 3103 3104 3105 3106 3107 3107 3108 3109 3110 3110 3111 3112 3112 3112 3112 3112 3112 3112 3111 3111 3111 3110 3110 3110 3109 3109
3003 3004 3005 3005 3006 3006 3007 3008 3008 3009 3010 3011 3012 3012 3013 3015 3016 3018 3020 3023 3025 3027 3029 3031 3033 3035 3037 3039 3042 3044 3046 3049 3051 3054 3055 3057 3060 3062 3063 3065 3066 3068 3070 3073 3075 3077 3079 3081 3083 3084 3086 3088 3089 3090 3092 3093 3095 3096 3098 3099 3101 3102 3103 3104 3105 3106 3107 3107 3108 3109 3110 3110 3111 3111 3111 3111 3111 3111 3111 3111 3110 3110 3110 3109 3109 3108 3108
3003 3003 3004 3004 3005 3006 3006 3007 3008 3009 3010 3011 3012 3013 3014 3015 3016 3018 3020 3022 3024 3026 3029 3031 3033 3035 3037 3039 3041 3044 3046 3048 3050 3053 3055 3057 3059 3061 3063 3064 3066 3067 3070 3072 3074 3076 3078 3080 3082 3083 3085 3087 3088 3089 3091 3093 3094 3096 3097 3098 3099 3101 3102 3103 3104 3105 3106 3107 3107 3108 3109 3109 3110 3110 3110 3110 3110 3110 3110 3110 3110 3109 3109 3109 3108 3108 3107
3001 3002 3003 3003 3004 3005 3006 3007 3008 3009 3010 3011 3012 3013 3014 3015 3016 3018 3019 3022 3024 3026 3028 3030 3032 3034 3036 3038 3040 3043 3045 3047 3050 3052 3054 3056 3058 3060 3062 3064 3065 3067 3069 3071 3073 3075 3076 3078 3080 3082 3084 3085 3087 3088 3090 3092 3093 3095 3096 3097 3098 3099 3101 3102 3103 3104 3105 3106 3107 3107 3108 3109 3109 3109 3109 3110 3110 3110 3109 3109 3109 3109 3108 3108 3107 3107 3107
3000 3001 3001 3002 3003 3004 3005 3006 3007 3008 3009 3010 3012 3013 3014 3015 3016 3018 3019 3021 3023 3025 3027 3029 3031 3033 3035 3037 3040 3042 3044 3047 3049 3051 3053 3055 3057 3059 3061 3063 3065 3067 3068 3070 3072 3074 3075 3077 3079 3081 3083 3084 3086 3087 3089 3091 3092 3093 3095 3096 3097 3098 3099 3101 3102 3103 3104 3105 3106 3106 3107 3108 3108 3108 3108 3108 3108 3108 3108 3108 3108 3108 3107 3107 3107 3106 3106
2999 3000 3000 3001 3002 3003 3005 3006 3007 3008 3009 3010 3011 3012 3013 3015 3016 3017 3019 3021 3023 3024 3026 3029 3031 3032 3034 3037 3039 3041 3043 3045 3048 3050 3052 3054 3056 3058 3060 3062 3063 3065 3066 3068 3070 3072 3074 3076 3078 3079 3081 3083 3084 3086 3088 3089 3091 3092 3093 3094 3096 3097 3098 3099 3100 3102 3103 3103 3104 3105 3106 3106 3106 3106 3107 3107 3107 3107 3106 3106 3106 3106 3106 3106 3105 3105 3105
2997 2999 3000 3001 3001 3003 3004 3005 3007 3008 3009 3010 3011 3012 3013 3015 3016 3017 3019 3021 3023 3024 3026 3028 3030 3032 3034 3036 3038 3040 3042 3044 3047 3049 3051 3053 3055 3057 3059 3060 3061 3063 3064 3066 3069 3071 3073 3075 3076 3078 3080 3081 3083 3085 3086 3088 3089 3090 3092 3093 3095 3096 3097 3098 3099 3100 3101 3102 3103 3103 3104 3104 3104 3105 3105 3105 3105 3105 3105 3105 3105 3105 3105 3104 3104 3104 3103
2996 2997 2998 3000 3001 3002 3003 3004 3006 3007 3009 3010 3011 3012 3013 3015 3016 3018 3019 3021 3022 3024 3026 3027 3029 3032 3034 3036 3038 3040 3042 3044 3046 3048 3050 3053 3054 3056 3058 3059 3060 3062 3063 3065 3067 3069 3071 3073 3075 3077 3078 3080 3082 3084 3085 3087 3088 3089 3090 3092 3093 3094 3095 3097 3098 3099 3099 3100 3101 3101 3102 3102 3102 3102 3102 3103 3103 3103 3103 3103 3103 3103 3103 3103 3102 3102 3101
2995 2996 2998 2999 3000 3001 3002 3004 3005 3007 3008 3010 3011 3012 3013 3014 3015 3017 3018 3020 3021 3023 3024 3026 3028 3030 3032 3034 3036 3038 3041 3043 3045 3047 3050 3052 3054 3055 3056 3058 3059 3061 3062 3064 3066 3068 3070 3071 3074 3076 3077 3079 3081 3082 3084 3085 3086 3088 3089 3090 3091 3092 3094 3095 3096 3097 3098 3098 3099 3099 3100 3100 3100 3100 3100 3100 3101 3101 3101 3101 3101 3101 3101 3100 3100 3100 3099
2995 2996 2997 2998 2999 3001 3002 3003 3005 3006 3008 3009 3011 3012 3013 3014 3015 3016 3017 3019 3021 3022 3023 3024 3026 3028 3030 3032 3035 3037 3039 3041 3043 3046 3049 3051 3052 3053 3055 3056 3058 3059 3061 3063 3065 3067 3069 3070 3072 3074 3076 3078 3079 3081 3083 3084 3085 3086 3087 3089 3090 3091 3092 3093 3094 3095 3096 3096 3097 3097 3098 3098 3098 3098 3098 3098 3098 3099 3099 3098 3098 3098 3098 3098 3098 3097 3097
2994 2995 2996 2998 2999 3000 3001 3003 3004 3006 3007 3009 3010 3011 3012 3013 3015 3016 3017 3019 3020 3021 3022 3024 3026 3028 3029 3031 3033 3036 3038 3040 3043 3045 3047 3049 3051 3052 3053 3055 3056 3058 3060 3062 3064 3066 3068 3069 3071 3073 3075 3076 3078 3080 3081 3082 3084 3085 3086 3087 3088 3089 3091 3091 3092 3093 3094 3094 3095 3095 3095 3095 3095 3095 3096 3096 3096 3096 3096 3096 3096 3096 3095 3095 3095 3095 3094
2994 2995 2996 2997 2998 2999 3001 3002 3004 3005 3007 3008 3009 3010 3012 3013 3014 3015 3017 3018 3020 3022 3023 3025 3026 3028 3030 3032 3034 3036 3038 3040 3042 3044 3047 3049 3050 3052 3053 3054 3055 3057 3059 3061 3063 3065 3067 3068 3070 3072 3074 3075 3077 3078 3080 3081 3082 3083 3084 3086 3087 3088 3089 3089 3090 3091 3091 3092 3092 3092 3093 3093 3093 3093 3093 3093 3093 3093 3093 3093 3092 3092 3092 3092 3092 3091 3091
2994 2994 2995 2996 2998 2999 3000 3001 3003 3004 3006 3007 3008 3010 3011 3012 3013 3015 3016 3018 3020 3021 3023 3025 3027 3028 3030 3032 3034 3036 3038 3039 3041 3043 3045 3047 3049 3050 3052 3053 3055 3057 3058 3060 3062 3064 3065 3067 3069 3071 3072 3074 3075 3077 3078 3080 3081 3082 3083 3084 3085 3086 3086 3087 3088 3088 3089 3089 3090 3090 3090 3090 3090 3090 3090 3090 3090 3090 3090 3089 3089 3089 3089 3089 3088 3088 3088
2994 2994 2995 2996 2997 2998 2999 3000 3002 3003 3005 3007 3008 3010 3011 3012 3013 3015 3016 3018 3019 3021 3023 3025 3026 3028 3029 3031 3033 3035 3037 3039 3040 3042 3043 3045 3046 3048 3050 3052 3054 3056 3057 3059 3061 3063 3064 3066 3068 3069 3071 3072 3074 3075 3077 3078 3079 3080 3081 3081 3082 3083 3084 3085 3085 3086 3086 3087 3087 3087 3087 3087 3087 3087 3087 3087 3087 3087 3086 3086 3086 3086 3086 3085 3085 3085 3084
2994 2994 2995 2995 2996 2997 2998 2999 3001 3003 3004 3006 3008 3009 3010 3011 3013 3014 3016 3018 3020 3021 3022 3024 3025 3027 3029 3030 3032 3034 3036 3037 3039 3040 3042 3043 3044 3046 3048 3050 3052 3054 3056 3058 3059 3061 3063 3064 3066 3068 3069 3071 3072 3074 3075 3076 3077 3078 3079 3079 3080 3081 3081 3082 3082 3083 3083 3084 3084 3084 3084 3084 3084 3084 3084 3084 3083 3083 3083 3082 3082 3082 3082 3082 3082 3081 3081
2994 2994 2995 2996 2996 2997 2998 2999 3001 3002 3004 3005 3007 3008 3009 3011 3012 3014 3016 3018 3020 3021 3022 3024 3025 3027 3028 3030 3031 3033 3034 3036 3037 3039 3040 3042 3043 3045 3047 3048 3050 3052 3054 3056 3058 3060 3061 3063 3065 3066 3068 3069 3071 3072 3073 3074 3074 3075 3076 3077 3077 3078 3078 3079 3079 3080 3080 3080 3080 3080 3080 3080 3080 3080 3080 3080 3080 3079 3079 3079 3078 3078 3078 3078 3077 3077 3077
2994 2995 2996 2996 2997 2998 2999 3000 3001 3002 3004 3005 3006 3008 3009 3011 3012 3013 3015 3016 3018 3020 3021 3023 3025 3027 3028 3029 3030 3032 3033 3034 3036 3038 3039 3040 3042 3044 3046 3047 3049 3051 3053 3055 3056 3058 3060 3062 3063 3065 3066 3068 3069 3070 3071 3072 3072 3073 3073 3074 3074 3075 3075 3076 3076 3076 3076 3076 3076 3076 3077 3077 3077 3077 3076 3076 3076 3076 3075 3075 3075 3074 3074 3073 3073 3072 3072
2994 2995 2996 2997 2997 2998 2999 3000 3001 3002 3003 3004 3006 3007 3008 3010 3011 3012 3014 3015 3017 3019 3020 3022 3024 3025 3027 3028 3030 3031 3032 3033 3035 3037 3038 3039 3041 3042 3044 3047 3049 3050 3052 3054 3055 3057 3059 3060 3062 3063 3065 3066 3067 3068 3069 3070 3070 3071 3071 3071 3072 3072 3072 3072 3073 3073 3073 3073 3073 3073 3073 3073 3073 3073 3072 3072 3072 3072 3071 3071 3071 3070 3070 3069 3068 3068 3067
2994 2994 2995 2996 2997 2997 2998 2999 3000 3001 3002 3003 3005 3006 3007 3008 3010 3011 3013 3014 3016 3018 3019 3021 3022 3024 3026 3027 3029 3030 3031 3033 3034 3036 3037 3039 3040 3042 3043 3045 3047 3049 3051 3053 3054 3056 3057 3059 3060 3061 3063 3064 3065 3066 3067 3067 3068 3068 3069 3069 3069 3069 3069 3070 3070 3070 3070 3070 3069 3069 3069 3069 3069 3069 3069 3068 3068 3068 3067 3067 3066 3066 3065 3065 3064 3063 3063